Abilene Dyess, TX

1:39 AM CDT on October 22, 2019 (GMT -0500)
Dyess Air Force Base

Weather History for KDYS - July, 2019

Change the Weather History Date:

Wednesday, July 17, 2019

  Actual Average Record
Temperature  
Mean Temperature 87 °F -  
Max Temperature 97 °F 95 °F 105 °F (2006)
Min Temperature 77 °F 73 °F 68 °F (2014)
Cooling Degree Days 22    
Growing Degree Days 37 (Base 50)    
Moisture  
Dew Point 63 °F    
Average Humidity 44    
Maximum Humidity 72    
Minimum Humidity 28    
Precipitation  
Precipitation 0.00 in - - ()
Sea Level Pressure  
Sea Level Pressure 29.83 in    
Wind  
Wind Speed 16 mph (SSE)    
Max Wind Speed 23 mph    
Max Gust Speed 31 mph    
Visibility 10 miles    
Events      
Averages and records for this station are not official NWS values.
T = Trace of Precipitation, MM = Missing Value Source: NWS Daily Summary

Daily Weather History Graph

Daily Weather History Graph

Search for Another Location

Airport or City:

Astronomy

Jul. 17, 2019 Rise Set
Actual Time 6:44 AM CDT 8:46 PM CDT
Civil Twilight 6:16 AM CDT 9:14 PM CDT
Nautical Twilight 5:42 AM CDT 9:47 PM CDT
Astronomical Twilight 5:06 AM CDT 10:23 PM CDT
Moon 9:37 PM CDT (7/17) 7:18 AM CDT (7/17)
Length of Visible Light 14h 57m
Length of Day
14h 02m
Full, 99% of the Moon is Illuminated
Jul 17
Full
Jul 24
Last Quarter
Jul 31
New
Aug 7
First Quarter
Aug 15
Full

Hourly Weather History & Observations

Time (CDT) Temp. Heat Index Dew Point Humidity Pressure Visibility Wind Dir Wind Speed Gust Speed Precip Events Conditions
2:56 AM 81.0 °F 82.6 °F 64.2 °F 57% 29.82 in 10.0 mi SSE 18.4 mph 21.9 mph N/A   Clear
3:56 AM 80.2 °F 82.2 °F 65.5 °F 61% 29.82 in 10.0 mi South 13.8 mph - N/A   Clear
4:56 AM 78.8 °F - 66.4 °F 66% 29.82 in 10.0 mi SSE 11.5 mph - N/A   Clear
5:56 AM 78.1 °F - 67.1 °F 69% 29.83 in 10.0 mi SSE 15.0 mph - N/A   Clear
6:56 AM 77.0 °F - 67.3 °F 72% 29.84 in 10.0 mi SSE 11.5 mph - N/A   Clear
7:56 AM 79.2 °F - 67.6 °F 68% 29.86 in 10.0 mi SSE 16.1 mph - N/A   Clear
8:56 AM 81.7 °F 84.2 °F 67.3 °F 61% 29.86 in 10.0 mi South 18.4 mph 25.3 mph N/A   Clear
9:56 AM 84.4 °F 86.1 °F 64.8 °F 52% 29.87 in 10.0 mi South 18.4 mph 26.5 mph N/A   Clear
10:56 AM 87.3 °F 88.9 °F 64.6 °F 47% 29.88 in 10.0 mi South 17.3 mph - N/A   Clear
11:56 AM 90.0 °F 91.7 °F 64.4 °F 43% 29.89 in 9.0 mi South 11.5 mph 19.6 mph N/A   Clear
12:56 PM 91.2 °F 92.9 °F 64.8 °F 41% 29.88 in 10.0 mi SSE 15.0 mph 21.9 mph N/A   Scattered Clouds
1:56 PM 93.7 °F 94.5 °F 61.9 °F 35% 29.85 in 10.0 mi SSE 15.0 mph 24.2 mph N/A   Mostly Cloudy
2:42 PM 95.0 °F 96.0 °F 62.6 °F 34% 29.83 in 10.0 mi SSE 18.4 mph 26.5 mph N/A   Scattered Clouds
2:56 PM 94.8 °F 94.9 °F 60.3 °F 32% 29.83 in 10.0 mi South 23.0 mph 26.5 mph N/A   Partly Cloudy
3:02 PM 95.0 °F 95.2 °F 60.8 °F 32% 29.82 in 10.0 mi South 16.1 mph 26.5 mph N/A   Partly Cloudy
3:10 PM 95.0 °F 95.2 °F 60.8 °F 32% 29.82 in 10.0 mi SSE 17.3 mph 25.3 mph N/A   Partly Cloudy
3:56 PM 95.7 °F 95.9 °F 61.0 °F 31% 29.80 in 10.0 mi South 21.9 mph 26.5 mph N/A   Clear
4:30 PM 96.8 °F 96.2 °F 59.0 °F 28% 29.79 in 10.0 mi SSE 20.7 mph 27.6 mph N/A   Clear
4:43 PM 96.8 °F 96.2 °F 59.0 °F 28% 29.78 in 10.0 mi South 16.1 mph - N/A   Clear
4:56 PM 97.3 °F 97.9 °F 60.6 °F 30% 29.78 in 10.0 mi South 18.4 mph 26.5 mph N/A   Clear
5:56 PM 96.1 °F 96.0 °F 59.5 °F 30% 29.76 in 10.0 mi SE 19.6 mph 31.1 mph N/A   Clear
6:56 PM 95.2 °F 94.7 °F 58.8 °F 30% 29.76 in 10.0 mi South 19.6 mph 26.5 mph N/A   Clear
7:56 PM 93.2 °F 92.6 °F 58.8 °F 32% 29.76 in 10.0 mi SSE 20.7 mph - N/A   Clear
8:56 PM 89.1 °F 88.5 °F 59.4 °F 37% 29.92 in 10.0 mi SSE 12.7 mph - N/A   Clear
9:56 PM 86.7 °F 86.8 °F 60.8 °F 42% 29.94 in 10.0 mi SSE 12.7 mph - N/A   Clear
10:56 PM 84.7 °F 85.0 °F 61.0 °F 45% 29.81 in 10.0 mi SSE 13.8 mph - N/A   Clear
11:56 PM 83.7 °F 84.5 °F 62.4 °F 49% 29.80 in 10.0 mi SSE 13.8 mph - N/A   Clear